sat.trackr.live / text

‹ back to catalog

STARLINK-30991

NORAD 58484 · 2023-186M

PAYLOAD ACTIVE UNKNOWN

§ Identity

Operator
Country
US
Launch date
2023-12-03
Launch site
AFETR
Launch vehicle
Mass (kg)
RCS (m²)

Purposes: comms

External: N2YO · Heavens-Above · Gunter

§ Orbital elements

Epoch: 2026-09-20T19:44:20.375520Z

Period
94.27 min
Inclination
43.0038°
Eccentricity
0.0002011
Mean motion
15.27602427 rev/d
Perigee alt
481.6 km
Apogee alt
484.4 km
Semi-major
6,861.1 km
B*
1.1710e-4
RAAN
41.2568°
Arg perigee
283.2545°
Mean anomaly
76.8083°
Rev number
15,572

§ Raw data

STARLINK-309911 58484U 23186M   26263.82245805  .00002964  00000+0  11710-3 0  99952 58484  43.0038  41.2568 0002011 283.2545  76.8083 15.27602427155726

JSON: /api/v1/satellites/58484 · /tle

For live sub-satellite position, see the globe view (requires WebGL).

§ Visibility from observer

Set your observer location to see the next 7 days of passes ≥ 10°. The values pass through the URL so the page stays shareable.

No JS? Fill the form by hand. The geolocation button needs JavaScript.